TimeCDT,TemperatureF,Dew PointF,Humidity,Sea Level PressureIn,VisibilityMPH,Wind Direction,Wind SpeedMPH,Gust SpeedMPH,PrecipitationIn,Events,Conditions,WindDirDegrees,DateUTC
12:06 AM,57.2,57.2,100,30.01,3.0,Calm,Calm,-,N/A,,Clear,0,2012-10-25 05:06:00
12:30 AM,57.2,57.2,100,30.01,4.0,Calm,Calm,-,N/A,,Partly Cloudy,0,2012-10-25 05:30:00
12:45 AM,59.0,59.0,100,30.00,1.0,Calm,Calm,-,N/A,,Mist,0,2012-10-25 05:45:00
12:53 AM,57.9,57.9,100,30.01,0.5,Calm,Calm,-,N/A,Fog,Fog,0,2012-10-25 05:53:00
12:56 AM,57.2,57.2,100,30.00,0.2,Calm,Calm,-,N/A,Fog,Fog,0,2012-10-25 05:56:00
1:06 AM,57.2,57.2,100,30.00,0.5,Calm,Calm,-,N/A,Fog,Fog,0,2012-10-25 06:06:00
1:39 AM,57.2,57.2,100,29.99,0.5,Calm,Calm,-,N/A,Fog,Fog,0,2012-10-25 06:39:00
1:49 AM,57.2,55.4,94,29.99,1.0,Calm,Calm,-,N/A,,Mist,0,2012-10-25 06:49:00
1:53 AM,57.0,55.9,96,29.99,0.5,Calm,Calm,-,N/A,Fog,Fog,0,2012-10-25 06:53:00
2:19 AM,57.2,55.4,94,29.98,0.2,Calm,Calm,-,N/A,Fog,Fog,0,2012-10-25 07:19:00
2:34 AM,55.4,55.4,100,29.98,0.8,Calm,Calm,-,N/A,,Mist,0,2012-10-25 07:34:00
2:41 AM,57.2,55.4,94,29.97,0.2,Calm,Calm,-,N/A,Fog,Fog,0,2012-10-25 07:41:00
2:49 AM,57.2,55.4,94,29.97,0.2,Calm,Calm,-,N/A,Fog,Fog,0,2012-10-25 07:49:00
2:53 AM,57.0,55.9,96,29.98,0.5,Calm,Calm,-,N/A,Fog,Fog,0,2012-10-25 07:53:00
3:11 AM,57.2,55.4,94,29.97,0.2,Calm,Calm,-,N/A,Fog,Fog,0,2012-10-25 08:11:00
3:53 AM,55.9,55.9,100,29.96,0.2,Calm,Calm,-,N/A,Fog,Fog,0,2012-10-25 08:53:00
4:05 AM,55.4,55.4,100,29.96,0.5,Calm,Calm,-,N/A,Fog,Fog,0,2012-10-25 09:05:00
4:22 AM,57.2,55.4,94,29.96,0.2,Calm,Calm,-,N/A,Fog,Fog,0,2012-10-25 09:22:00
4:40 AM,57.2,57.2,100,29.96,0.5,Calm,Calm,-,N/A,Fog,Fog,0,2012-10-25 09:40:00
4:53 AM,55.9,55.9,100,29.97,0.8,Calm,Calm,-,N/A,,Clear,0,2012-10-25 09:53:00
5:03 AM,57.2,55.4,94,29.96,0.5,Calm,Calm,-,N/A,Fog,Fog,0,2012-10-25 10:03:00
5:12 AM,57.2,55.4,94,29.97,0.5,Calm,Calm,-,N/A,Fog,Fog,0,2012-10-25 10:12:00
5:42 AM,59.0,57.2,94,29.97,2.0,Calm,Calm,-,N/A,,Clear,0,2012-10-25 10:42:00
5:53 AM,57.9,57.0,97,29.98,2.5,North,3.5,-,N/A,,Clear,350,2012-10-25 10:53:00
6:03 AM,57.2,57.2,100,29.98,5.0,North,3.5,-,N/A,,Clear,350,2012-10-25 11:03:00
6:53 AM,57.0,57.0,100,29.99,5.0,Calm,Calm,-,N/A,,Partly Cloudy,0,2012-10-25 11:53:00
7:53 AM,61.0,60.1,97,30.00,9.0,Calm,Calm,-,N/A,,Clear,0,2012-10-25 12:53:00
8:53 AM,68.0,63.0,84,30.00,10.0,East,3.5,-,N/A,,Clear,90,2012-10-25 13:53:00
9:53 AM,71.1,66.9,87,30.00,10.0,Variable,4.6,-,N/A,,Clear,0,2012-10-25 14:53:00
10:53 AM,80.1,68.0,67,30.01,10.0,SE,10.4,-,N/A,,Mostly Cloudy,130,2012-10-25 15:53:00
11:53 AM,82.0,66.9,60,30.00,10.0,SSE,9.2,-,N/A,,Mostly Cloudy,160,2012-10-25 16:53:00
12:53 PM,80.1,66.0,62,29.98,10.0,SSE,8.1,-,N/A,,Scattered Clouds,160,2012-10-25 17:53:00
1:53 PM,82.0,66.9,60,29.96,10.0,SE,8.1,-,N/A,,Mostly Cloudy,140,2012-10-25 18:53:00
2:53 PM,81.0,64.9,58,29.95,10.0,South,5.8,-,N/A,,Mostly Cloudy,170,2012-10-25 19:53:00
3:53 PM,80.1,66.0,62,29.94,10.0,Variable,4.6,-,N/A,,Mostly Cloudy,0,2012-10-25 20:53:00
4:53 PM,78.1,66.0,66,29.94,10.0,South,3.5,-,N/A,,Partly Cloudy,180,2012-10-25 21:53:00
5:53 PM,73.9,66.9,79,29.95,10.0,SSE,4.6,-,N/A,,Clear,150,2012-10-25 22:53:00
6:53 PM,69.1,64.9,87,29.96,10.0,Calm,Calm,-,N/A,,Clear,0,2012-10-25 23:53:00
7:53 PM,66.9,64.9,93,29.97,7.0,Calm,Calm,-,N/A,,Clear,0,2012-10-26 00:53:00
8:05 PM,66.2,64.4,94,29.97,1.8,Calm,Calm,-,N/A,,Clear,0,2012-10-26 01:05:00
8:17 PM,64.4,62.6,94,29.97,3.0,Calm,Calm,-,N/A,,Clear,0,2012-10-26 01:17:00
8:29 PM,64.4,62.6,94,29.97,1.8,Calm,Calm,-,N/A,,Clear,0,2012-10-26 01:29:00
8:38 PM,64.4,64.4,100,29.97,3.0,Calm,Calm,-,N/A,,Clear,0,2012-10-26 01:38:00
8:50 PM,62.6,62.6,100,29.97,1.8,Calm,Calm,-,N/A,,Clear,0,2012-10-26 01:50:00
8:53 PM,64.0,62.1,93,29.98,1.0,Calm,Calm,-,N/A,,Partly Cloudy,0,2012-10-26 01:53:00
9:01 PM,64.4,62.6,94,29.97,3.0,Calm,Calm,-,N/A,,Scattered Clouds,0,2012-10-26 02:01:00
9:13 PM,64.4,62.6,94,29.97,1.8,Calm,Calm,-,N/A,,Scattered Clouds,0,2012-10-26 02:13:00
9:26 PM,62.6,62.6,100,29.97,0.2,Calm,Calm,-,N/A,Fog,Fog,0,2012-10-26 02:26:00
9:34 PM,62.6,62.6,100,29.98,0.8,North,3.5,-,N/A,,Mist,350,2012-10-26 02:34:00
9:50 PM,62.6,62.6,100,29.97,2.0,Calm,Calm,-,N/A,,Clear,0,2012-10-26 02:50:00
9:53 PM,63.0,62.1,97,29.98,2.5,Calm,Calm,-,N/A,,Clear,0,2012-10-26 02:53:00
10:00 PM,62.6,60.8,94,29.97,4.0,Calm,Calm,-,N/A,,Clear,0,2012-10-26 03:00:00
10:30 PM,62.6,60.8,94,29.97,0.8,Calm,Calm,-,N/A,,Clear,0,2012-10-26 03:30:00
10:53 PM,59.0,59.0,100,29.97,0.8,Calm,Calm,-,N/A,,Mist,0,2012-10-26 03:53:00
11:03 PM,59.0,57.2,94,29.97,0.2,Calm,Calm,-,N/A,Fog,Fog,0,2012-10-26 04:03:00
11:17 PM,60.8,60.8,100,29.96,0.2,Calm,Calm,-,N/A,Fog,Fog,0,2012-10-26 04:17:00
11:27 PM,60.8,60.8,100,29.97,0.2,Calm,Calm,-,N/A,Fog,Fog,0,2012-10-26 04:27:00
11:34 PM,62.6,60.8,94,29.96,1.0,Calm,Calm,-,N/A,,Clear,0,2012-10-26 04:34:00
11:45 PM,60.8,59.0,94,29.96,0.8,Calm,Calm,-,N/A,,Mist,0,2012-10-26 04:45:00
11:58 PM,59.0,57.2,94,29.96,2.5,Calm,Calm,-,N/A,,Mostly Cloudy,0,2012-10-26 04:58:00